Volver al catálogo

STARLINK-6034

ActivoComunicacionesSSO
NORAD 56324·PAYLOAD·🇺🇸 United States

Lanzado Apr 27, 2023 desde Vandenberg Space Force Base

Loading…

Próximos Pases (próximas 24 horas)

TLE

ActualizadoSource: CelesTrak SupGP

Época: Sep 14, 2026, 22:18 UTC

1 56324C 23058H   26257.92965278  .00060804  00000+0  18875-2 0  2573
2 56324  97.2844 254.7065 0001751  85.2054  54.7531 15.33408348    18

Sigue STARLINK-6034 en tiempo real con AllMySat

Download on the App Store